User: anonymous   Login
Location: Ferma
(41.9500°N, 44.5167°E)
Time: 14:49:13
(UTC+00:00)
Language:

SKYMED 2 - Orbit

View from above orbital plane
View from above orbital plane
View from above satellite
View from above satellite

Ground track
Ground track

The orbit data is extracted from the following two-line orbital elements,

1 32376U 07059A   22024.09805930  .00000322  00000-0  46950-4 0  9991
2 32376  97.8817 209.8480 0001516  90.8067 269.3309 14.82157815764323
Epoch (UTC): 24 January 2022 02:21:12
Eccentricity: 0.0001516
inclination: 97.8817°
perigee height: 621 km
apogee height: 623 km
right ascension of ascending node: 209.8480°
argument of perigee: 90.8067°
revolutions per day: 14.82157815
mean anomaly at epoch: 269.3309°
orbit number at epoch: 76432

The dashed part of the orbit path shows where the satellite is in the earth's shadow,  

DLR